Find Local Weather

World > North America > United States > North Dakota

Absaraka, North Dakota Regional Weather

Lat: 46.98N, Lon: 97.39W
Wx Zone: NDZ039
Warning FLW WEATHER ALERT - (More Info. Click Here) Warning
Feedback

Absaraka, ND Regional Weather

Expires:201905242100;;399607
ASUS43 KBIS 242031
RWRND 
NORTH DAKOTA REGIONAL WEATHER ROUNDUP
NATIONAL WEATHER SERVICE EASTERN NORTH DAKOTA/GRAND FORKS ND
300 PM CDT FRI MAY 24 2019

  NOTE: "FAIR" INDICATES FEW OR NO CLOUDS BELOW 12,000 FEET WITH NO
  SIGNIFICANT WEATHER AND/OR OBSTRUCTIONS TO VISIBILITY.


NDZ022-023-025-028>030-036>039-047>053-242100-
...SOUTHEAST NORTH DAKOTA...
  
CITY           SKY/WX    TMP DP  RH WIND       PRES   REMARKS
JAMESTOWN      PTSUNNY   62  53  72 S12G21    29.61F                  
FARGO          CLOUDY    60  55  83 SE12      29.68F                  
WAHPETON       MOCLDY    61  52  72 S10       29.69F                  
$$
  

SKY/WX - Weather  TMP - Temperature  DP - Dew Point  RH - Relative Humidity
WIND - Wind Direction/Speed PRES - Barometric Pressure VSB - Visibility
WCI - Wind Chill Index E13G22 Wind - East Wind 13 mph/Gusts of 22 mph